Regional Weather Roundup
Issued by NWS

Home | Current Version | Previous Version | Graphics & Text | Print | Product List | Glossary On
Versions: 1 2 3 4 5 6 7 8 9 10 11 12 13 14 15 16 17 18 19 20 21 22 23 24 25 26 27 28
000
ASUS45 KSLC 250810
RWRUT

UTAH REGIONAL WEATHER ROUNDUP
NATIONAL WEATHER SERVICE SALT LAKE CITY UT
200 AM MDT THU AUG 25 2016

UTZ001>011-023>025-250900-

NORTHERN UTAH

CITY           SKY/WX    TMP DP  RH WIND       PRES   REMARKS
BRIGHAM CITY     N/A     59  31  33 SW6       30.12S
HILL AFB       CLEAR     60  24  25 E15G25    30.13R
LOGAN          PTCLDY    50  36  58 SW6       30.16S
OGDEN          CLEAR     58  28  32 SW6       30.11R
PROVO AIRPORT  CLEAR     55  27  33 E5        30.14R
SALT LAKE CITY CLEAR     64  29  26 SE8       30.10S
VERNAL         CLEAR     50  31  48 CALM      30.16R
WENDOVER       CLEAR     68  21  17 N5        30.13S
HEBER CITY     CLEAR     39  30  70 E5        30.21R
WEST JORDAN    CLEAR     60  26  27 CALM      30.13S

$$

UTZ012>022-026-027-250900-

SOUTHERN/CENTRAL UTAH

CITY           SKY/WX    TMP DP  RH WIND       PRES   REMARKS
BLANDING       CLEAR     55  41  58 NE3       30.29R
BRYCE CANYON   CLEAR     46  40  79 NW5       30.32S
CEDAR CITY     CLEAR     57  41  55 E5        30.15R
DELTA          CLEAR     63  18  17 NE8       30.10S
MILFORD        CLEAR     57  35  43 S5        30.11R
MOAB/CYNLANDS  CLEAR     65  42  43 CALM      30.09S
PRICE          CLEAR     56  14  19 N10       30.19S
ST GEORGE      SUNNY     81  41  24 E18       29.96S

$$

REGIONAL REPORTS     COLORADO/ARIZONA

CITY           SKY/WX    TMP DP  RH WIND       PRES   REMARKS
CRAIG, CO      CLOUDY    47  38  71 S3        30.22R
GRAND JUNCTION CLEAR     63  49  60 SE13      30.15F
RIFLE          CLOUDY    56  49  77 SE3       30.21R
MONTROSE       CLOUDY    56  46  69 E3        30.25R
CORTEZ         CLEAR     54  49  83 E3        30.24R
PAGE, AZ       PTCLDY    72  49  44 NW6       30.09R
GRAND CANYON   CLEAR     49  42  77 CALM      30.29F
KINGMAN        CLEAR     77  50  38 E10       30.04R
FLAGSTAFF      CLEAR     49  47  93 CALM      30.32F

$$

REGIONAL REPORTS    NEVADA/IDAHO/WYOMING

CITY           SKY/WX    TMP DP  RH WIND       PRES   REMARKS
LAS VEGAS, NV  PTCLDY    90  32  12 SW8       29.85S
ELY            CLEAR     43  17  35 S13       30.20S
ELKO           CLEAR     61  25  25 E6        30.15S
POCATELLO, ID  CLEAR     54  35  48 NE9       30.19S
EVANSTON, WY   CLOUDY    47  16  29 E6        30.29R
ROCK SPRINGS   NOT AVBL

$$




USA.gov is the U.S. government's official web portal to all federal, state and local government web resources and services.